Regional Weather Roundup
Issued by NWS Spokane, WA

Home | Current Version | Previous Version | Text Only | Print | Product List | Glossary On
Versions: 1 2 3 4 5 6 7 8 9 10 11 12 13 14 15 16 17 18 19 20 21 22 23 24 25 26 27 28 29 30 31 32 33 34 35 36 37 38 39 40 41 42 43 44 45 46 47 48 49 50
830
NZUS01 KOTX 201325
RWROTX

Eastern Washington/Northern Idaho Roundup
National Weather Service, Spokane WA
600 AM PDT THU JUL 20 2017

Note: "fair" indicated few or no clouds below 12,000 feet with no
significant weather and/or obstructions to visibility.

...Northeast Washington and Northern Idaho Panhandle...

CITY           SKY/WX    TMP DP  RH WIND       PRES   REMARKS
Spokane Intl   MOCLDY    63  46  54 S13       29.99R
Spokane Downto MOCLDY    67  44  43 S6        29.99R
Coeur d Alene  MOCLDY    60  48  64 SW5       30.01R
Deer Park      CLOUDY    61  44  53 SE8       29.99R
Sandpoint      LGT RAIN  59  52  77 CALM      29.97R
Bonners Ferry  FAIR      63  48  59 W7        29.98R

...Southeast Washington and southern Idaho Panhandle...

CITY           SKY/WX    TMP DP  RH WIND       PRES   REMARKS
Walla Walla    CLEAR     67  48  50 S12       30.04R
Pullman/Moscow PTCLDY    61  43  51 W6        30.05R
Lewiston       CLEAR     68  42  38 SE6       29.98R
Lowell           N/A     56  50  80 CALM      30.03R
Grangeville    FAIR      61  39  44 NE3       30.05R

...Columbia Basin...

CITY           SKY/WX    TMP DP  RH WIND       PRES   REMARKS
Ephrata        CLEAR     66  39  37 W5        29.93R
Moses Lake     CLEAR     64  46  52 SW8       29.94R
Pasco          CLEAR     67  50  54 S6        29.99R
Richland       SUNNY     68  50  53 S7        30.00R
Hermiston      CLEAR     66  51  58 SW17      30.01R
Pendleton      CLEAR     62  47  57 SW10      30.06R

...East Slopes Cascades...

CITY           SKY/WX    TMP DP  RH WIND       PRES   REMARKS
The Dalles     CLEAR     63  50  62 W10       30.06R
Yakima         CLEAR     55  47  74 CALM      30.00R
Ellensburg     CLEAR     61  46  57 NW17      30.01R
Stampede Pass  FOG       47  46  97 VRB5      30.11S VSB 3/4
Wenatchee      CLEAR     66  44  45 W14       29.93R
Omak           CLEAR     58  42  55 W5        29.89R
Chelan           N/A     70  39  32 MISG        N/A
Sunnyside        N/A     52  48  88 N5        30.01R

...Southern British Columbia...

CITY           SKY/WX    TMP DP  RH WIND       PRES   REMARKS
Penticton      MOCLDY    66  46  48 NE5       29.91R
Castlegar      PTCLDY    57  46  67 VRB3      29.90
Cranbrook      LGT RAIN  64  43  45 S10       29.98R
Osoyoos          N/A     72  48  43 N10G18      N/A
Creston          N/A     68  48  49 N9G24       N/A

...Western Montana...

CITY           SKY/WX    TMP DP  RH WIND       PRES   REMARKS
Kalispell      SUNNY     51  45  79 NW5       29.94S
Libby            N/A     52  43  71 S3        29.98R
Missoula       CLEAR     59  44  57 SE3       29.99R

...Neighboring Cities...

CITY           SKY/WX    TMP DP  RH WIND       PRES   REMARKS
Seattle        MOCLDY    60  53  77 S8        30.09R
Portland       MOCLDY    60  52  74 S5        30.13R
Boise          CLEAR     64  39  39 CALM      30.00R
Great Falls    CLEAR     59  36  42 SW7       29.96S
Calgary        MOCLDY    55  43  62 SW5       29.92R



USA.gov is the U.S. government's official web portal to all federal, state and local government web resources and services.